Crosby, ND

5:23 AM CST on January 23, 2017 (GMT -0600)
Crosby

Weather History for KD50 - October, 2012

Change the Weather History Date:

Tuesday, October 16, 2012

  Actual Average (KISN) Record (KISN)
Temperature  
Mean Temperature 48 °F -  
Max Temperature 62 °F 56 °F 82 °F (1945)
Min Temperature 33 °F 31 °F 9 °F (1992)
Degree Days  
Heating Degree Days 18    
Moisture  
Dew Point 42 °F    
Average Humidity 84    
Maximum Humidity 100    
Minimum Humidity 45    
Precipitation  
Precipitation 0.02 in - - ()
Sea Level Pressure  
Sea Level Pressure 29.37 in    
Wind  
Wind Speed 10 mph (SSW)    
Max Wind Speed 21 mph    
Max Gust Speed 30 mph    
Visibility 10 miles    
Events Rain    
Averages and records for this station are not official NWS values.
T = Trace of Precipitation, MM = Missing Value Source: NWS Daily Summary

Daily Weather History Graph

Daily Weather History Graph

Search for Another Location

Airport or City:

Trip Planner

Search our weather history database for the weather conditions in past years. The results will help you decide how hot, cold, wet, or windy it might be!

Date:

Astronomy

Oct. 16, 2012 Rise Set
Actual Time 8:16 AM CDT 7:00 PM CDT
Civil Twilight 7:44 AM CDT 7:32 PM CDT
Nautical Twilight 7:07 AM CDT 8:08 PM CDT
Astronomical Twilight 6:30 AM CDT 8:45 PM CDT
Moon 9:53 AM CDT (10/16) 7:33 PM CDT (10/16)
Length of Visible Light 11h 48m
Length of Day
10h 44m
New Moon, 2% of the Moon is Illuminated
Oct 16
New Moon
Oct 21
First Quarter
Oct 29
Full
Nov 6
Last Quarter
Nov 13
New

Hourly Weather History & Observations

Time (CDT) Temp. Windchill Dew Point Humidity Pressure Visibility Wind Dir Wind Speed Gust Speed Precip Events Conditions
12:15 AM 39.2 °F 35.0 °F 35.6 °F 87% 29.62 in 10.0 mi SW 5.8 mph - N/A   Clear
12:35 AM 37.4 °F 32.8 °F 35.6 °F 93% 29.62 in 10.0 mi SW 5.8 mph - N/A   Clear
12:55 AM 39.2 °F 35.0 °F 35.6 °F 87% 29.62 in 10.0 mi WSW 5.8 mph - N/A   Clear
1:15 AM 37.4 °F 31.4 °F 35.6 °F 93% 29.62 in 10.0 mi SW 8.1 mph - N/A   Clear
1:35 AM 37.4 °F 32.1 °F 35.6 °F 93% 29.61 in 10.0 mi SW 6.9 mph - N/A   Clear
1:55 AM 37.4 °F 32.8 °F 35.6 °F 93% 29.61 in 10.0 mi SW 5.8 mph - N/A   Clear
2:15 AM 37.4 °F 32.1 °F 35.6 °F 93% 29.61 in 10.0 mi SW 6.9 mph - N/A   Clear
2:35 AM 35.6 °F 30.7 °F 35.6 °F 100% 29.61 in 10.0 mi SW 5.8 mph - N/A   Clear
2:55 AM 35.6 °F 29.9 °F 35.6 °F 100% 29.60 in 10.0 mi South 6.9 mph - N/A   Clear
3:15 AM 35.6 °F 29.9 °F 35.6 °F 100% 29.61 in 10.0 mi SSW 6.9 mph - N/A   Clear
3:35 AM 33.8 °F 27.7 °F 32.0 °F 93% 29.60 in 10.0 mi SSW 6.9 mph - N/A   Clear
3:55 AM 35.6 °F 30.7 °F 35.6 °F 100% 29.59 in 10.0 mi SSW 5.8 mph - N/A   Scattered Clouds
4:15 AM 33.8 °F 30.8 °F 33.8 °F 100% 29.59 in 10.0 mi SSW 3.5 mph - N/A   Scattered Clouds
4:35 AM 33.8 °F 30.8 °F 32.0 °F 93% 29.59 in 10.0 mi SSW 3.5 mph - N/A   Mostly Cloudy
5:35 AM 35.6 °F 30.7 °F 35.6 °F 100% 29.55 in 10.0 mi South 5.8 mph - N/A   Partly Cloudy
5:55 AM 35.6 °F 29.9 °F 33.8 °F 93% 29.54 in 10.0 mi SSW 6.9 mph - N/A   Clear
6:15 AM 37.4 °F 29.8 °F 37.4 °F 100% 29.52 in 10.0 mi South 11.5 mph - N/A   Clear
6:35 AM 37.4 °F 29.8 °F 37.4 °F 100% 29.52 in 10.0 mi SSW 11.5 mph - N/A   Clear
6:55 AM 39.2 °F 32.0 °F 37.4 °F 93% 29.50 in 10.0 mi South 11.5 mph - N/A   Clear
7:15 AM 39.2 °F 32.0 °F 37.4 °F 93% 29.49 in 10.0 mi South 11.5 mph - N/A   Clear
7:35 AM 37.4 °F 30.8 °F 37.4 °F 100% 29.48 in 10.0 mi SSW 9.2 mph - N/A   Clear
7:55 AM 39.2 °F 32.0 °F 37.4 °F 93% 29.49 in 10.0 mi SW 11.5 mph - N/A   Clear
8:15 AM 41.0 °F 33.5 °F 39.2 °F 93% 29.48 in 10.0 mi SSW 13.8 mph - N/A   Clear
8:35 AM 41.0 °F 34.3 °F 39.2 °F 93% 29.46 in 10.0 mi SSW 11.5 mph - N/A   Clear
8:55 AM 39.2 °F 31.6 °F 39.2 °F 100% 29.45 in 10.0 mi SSW 12.7 mph - N/A   Clear
9:15 AM 41.0 °F 33.9 °F 39.2 °F 93% 29.44 in 10.0 mi SSW 12.7 mph - N/A   Clear
9:35 AM 41.0 °F 33.9 °F 39.2 °F 93% 29.44 in 10.0 mi SSW 12.7 mph - N/A   Clear
9:55 AM 42.8 °F 35.8 °F 41.0 °F 93% 29.43 in 10.0 mi SSW 13.8 mph - N/A   Clear
10:15 AM 44.6 °F 38.4 °F 41.0 °F 87% 29.41 in 10.0 mi South 12.7 mph 20.7 mph N/A   Clear
10:35 AM 46.4 °F 39.8 °F 42.8 °F 87% 29.40 in 10.0 mi SSW 16.1 mph - N/A   Clear
10:55 AM 48.2 °F - 44.6 °F 87% 29.39 in 10.0 mi SSW 16.1 mph - N/A   Clear
11:15 AM 51.8 °F - 44.6 °F 76% 29.39 in 10.0 mi SSW 16.1 mph 19.6 mph N/A   Clear
11:35 AM 53.6 °F - 44.6 °F 72% 29.39 in 10.0 mi South 12.7 mph - N/A   Clear
11:55 AM 55.4 °F - 44.6 °F 67% 29.38 in 10.0 mi South 13.8 mph - N/A   Clear
12:15 PM 57.2 °F - 44.6 °F 63% 29.36 in 10.0 mi South 15.0 mph - N/A   Clear
12:35 PM 59.0 °F - 44.6 °F 59% 29.35 in 10.0 mi South 15.0 mph - N/A   Clear
12:55 PM 62.6 °F - 42.8 °F 48% 29.34 in 10.0 mi South 13.8 mph - N/A   Clear
1:15 PM 62.6 °F - 42.8 °F 48% 29.32 in 10.0 mi South 16.1 mph - N/A   Clear
1:35 PM 62.6 °F - 41.0 °F 45% 29.30 in 10.0 mi South 17.3 mph - N/A   Clear
1:55 PM 62.6 °F - 41.0 °F 45% 29.29 in 10.0 mi South 15.0 mph 20.7 mph N/A   Scattered Clouds
2:15 PM 62.6 °F - 41.0 °F 45% 29.28 in 10.0 mi South 12.7 mph 20.7 mph N/A   Overcast
2:35 PM 62.6 °F - 41.0 °F 45% 29.26 in 10.0 mi South 15.0 mph 21.9 mph N/A   Overcast
2:55 PM 62.6 °F - 41.0 °F 45% 29.25 in 10.0 mi South 17.3 mph - N/A   Overcast
3:15 PM 62.6 °F - 41.0 °F 45% 29.24 in 10.0 mi South 15.0 mph - N/A   Mostly Cloudy
3:35 PM 60.8 °F - 41.0 °F 48% 29.24 in 10.0 mi SSW 17.3 mph 24.2 mph N/A   Mostly Cloudy
3:55 PM 59.0 °F - 44.6 °F 59% 29.24 in 9.0 mi SSW 15.0 mph 24.2 mph N/A   Overcast
4:15 PM 57.2 °F - 46.4 °F 67% 29.23 in 10.0 mi South 13.8 mph 23.0 mph N/A   Mostly Cloudy
4:35 PM 57.2 °F - 46.4 °F 67% 29.23 in 10.0 mi SSW 12.7 mph - N/A   Overcast
4:55 PM 57.2 °F - 46.4 °F 67% 29.22 in 10.0 mi South 12.7 mph - N/A   Mostly Cloudy
5:15 PM 55.4 °F - 48.2 °F 77% 29.21 in 10.0 mi SSW 16.1 mph 20.7 mph N/A   Mostly Cloudy
5:35 PM 53.6 °F - 50.0 °F 88% 29.21 in 5.0 mi SSW 11.5 mph - N/A   Overcast
5:55 PM 53.6 °F - 50.0 °F 88% 29.21 in 10.0 mi SSW 15.0 mph - N/A   Overcast
6:15 PM 51.8 °F - 50.0 °F 94% 29.20 in 9.0 mi SSW 17.3 mph 24.2 mph N/A Rain Light Rain
6:35 PM 51.8 °F - 51.8 °F 100% 29.21 in 5.0 mi SW 16.1 mph 21.9 mph N/A   Overcast
6:55 PM 51.8 °F - 51.8 °F 100% 29.21 in 5.0 mi SW 10.4 mph 19.6 mph N/A   Overcast
7:15 PM 51.8 °F - 51.8 °F 100% 29.20 in 8.0 mi SW 11.5 mph - N/A Rain Light Rain
7:35 PM 51.8 °F - 51.8 °F 100% 29.20 in 4.0 mi SW 9.2 mph 21.9 mph 0.01 in Rain Light Rain
7:55 PM 51.8 °F - 51.8 °F 100% 29.21 in 9.0 mi SW 9.2 mph - 0.02 in Rain Light Rain
8:15 PM 51.8 °F - 51.8 °F 100% 29.22 in 9.0 mi SW 12.7 mph - N/A Rain Light Rain
8:35 PM 51.8 °F - 51.8 °F 100% 29.22 in 10.0 mi SW 13.8 mph 20.7 mph N/A Rain Light Rain
8:55 PM 51.8 °F - 51.8 °F 100% 29.21 in 10.0 mi SW 15.0 mph 20.7 mph N/A   Overcast
9:15 PM 51.8 °F - 51.8 °F 100% 29.21 in 10.0 mi WSW 17.3 mph 21.9 mph N/A   Overcast
9:35 PM 51.8 °F - 50.0 °F 94% 29.19 in 10.0 mi WSW 16.1 mph 23.0 mph N/A Rain Light Rain
9:55 PM 51.8 °F - 48.2 °F 88% 29.19 in 10.0 mi SW 15.0 mph 20.7 mph N/A   Overcast
10:15 PM 51.8 °F - 48.2 °F 88% 29.18 in 10.0 mi SW 18.4 mph 23.0 mph N/A   Mostly Cloudy
10:35 PM 51.8 °F - 48.2 °F 88% 29.18 in 10.0 mi SW 20.7 mph 29.9 mph N/A   Overcast
10:55 PM 50.0 °F - 48.2 °F 94% 29.18 in 10.0 mi SW 17.3 mph 25.3 mph N/A   Overcast
11:15 PM 50.0 °F - 46.4 °F 87% 29.19 in 10.0 mi WSW 17.3 mph 24.2 mph N/A   Overcast
11:35 PM 48.2 °F - 44.6 °F 87% 29.19 in 10.0 mi WSW 15.0 mph 21.9 mph N/A   Mostly Cloudy
11:55 PM 48.2 °F - 44.6 °F 87% 29.19 in 10.0 mi WSW 19.6 mph 24.2 mph N/A   Partly Cloudy